{"data":{"norad_id":64622,"epoch":"2026-05-24T23:20:46.761216Z","epoch_age_seconds":74514,"freshness":"FRESH","line1":"1 64622U 25138B   26144.97276344  .00003403  00000+0  17045-3 0  9997","line2":"2 64622  97.4469 148.4282 0011969 212.1569 147.8936 15.17999547 50349","mean_motion":15.17999547,"eccentricity":0.0011969,"inclination_deg":97.4469,"raan_deg":148.4282,"arg_perigee_deg":212.1569,"mean_anomaly_deg":147.8936,"bstar":0.00017045,"rev_number":5034,"period_min":94.861688387579,"perigee_km":503.64052038549,"apogee_km":520.13386029233,"semimajor_km":6890.0241903389,"source":"CELESTRAK","updated_at":"2026-05-25T13:38:04.669929Z"}}